| time (UTC) | temp F | wind direction | speed MPH | gust MPH | rain 1hr in | rain 24hr in | rain mn in | humidity % | barometer mb |
| 20260508022703 | 52 | 345 | 3.0 | 7.0 | 0.00 | 0.24 | 0.00 | 99 | 1015.4 |
| 20260508021803 | 52 | 353 | 3.0 | 7.0 | 0.00 | 0.24 | 0.00 | 99 | 1015.3 |
| 20260508020903 | 52 | 359 | 2.0 | 6.0 | 0.00 | 0.24 | 0.00 | 99 | 1015.3 |
| 20260508020213 | 52 | 4 | 0.0 | 2.0 | 0.00 | 0.24 | 0.00 | 99 | 1015.2 |
| 20260508015403 | 53 | 8 | 1.0 | 3.0 | 0.00 | 0.24 | 0.00 | 99 | 1015.2 |
| 20260508014714 | 53 | 89 | 0.0 | 2.0 | 0.00 | 0.24 | 0.00 | 99 | 1015.1 |
| 20260508013813 | 52 | 155 | 0.0 | 2.0 | 0.00 | 0.24 | 0.00 | 99 | 1015.5 |
| 20260508012703 | 52 | 75 | 0.0 | 2.0 | 0.00 | 0.24 | 0.00 | 99 | 1015.1 |
| 20260508011803 | 52 | 149 | 0.0 | 2.0 | 0.00 | 0.24 | 0.00 | 99 | 1015.3 |
| 20260508010903 | 52 | 166 | 0.0 | 2.0 | 0.00 | 0.24 | 0.00 | 99 | 1015.2 |
| 20260508010003 | 52 | 157 | 0.0 | 2.0 | 0.00 | 0.24 | 0.00 | 99 | 1015.1 |
| 20260508005403 | 52 | 173 | 0.0 | 2.0 | 0.00 | 0.24 | 0.00 | 99 | 1015.0 |
| 20260508004503 | 52 | 152 | 0.0 | 2.0 | 0.00 | 0.24 | 0.00 | 99 | 1014.9 |
| 20260508003603 | 52 | 139 | 0.0 | 2.0 | 0.00 | 0.24 | 0.00 | 99 | 1015.1 |
| 20260508002703 | 52 | 133 | 1.0 | 2.0 | 0.00 | 0.24 | 0.00 | 99 | 1015.2 |
| 20260508001803 | 52 | 111 | 0.0 | 2.0 | 0.00 | 0.24 | 0.00 | 99 | 1015.0 |
| 20260508000903 | 52 | 126 | 0.0 | 2.0 | 0.00 | 0.24 | 0.00 | 99 | 1015.1 |
| 20260508000003 | 52 | 172 | 0.0 | 2.0 | 0.00 | 0.24 | 0.00 | 99 | 1014.9 |
| 20260507235403 | 52 | 163 | 0.0 | 2.0 | 0.00 | 0.24 | 0.00 | 99 | 1015.2 |
| 20260507234503 | 52 | 176 | 0.0 | 2.0 | 0.00 | 0.24 | 0.00 | 99 | 1015.1 |
| 20260507233603 | 53 | 79 | 0.0 | 2.0 | 0.00 | 0.24 | 0.00 | 99 | 1015.1 |
| 20260507232703 | 53 | 181 | 0.0 | 2.0 | 0.00 | 0.24 | 0.00 | 99 | 1015.4 |
| 20260507231803 | 53 | 62 | 0.0 | 2.0 | 0.00 | 0.24 | 0.00 | 99 | 1015.2 |
| 20260507230903 | 53 | 59 | 1.0 | 3.0 | 0.00 | 0.24 | 0.00 | 99 | 1015.0 |
| 20260507230003 | 53 | 104 | 0.0 | 2.0 | 0.00 | 0.24 | 0.00 | 99 | 1015.2 |
| 20260507225403 | 53 | 149 | 1.0 | 2.0 | 0.01 | 0.24 | 0.00 | 99 | 1015.4 |
| 20260507224504 | 53 | 64 | 0.0 | 2.0 | 0.01 | 0.24 | 0.00 | 99 | 1015.4 |
| 20260507223603 | 53 | 276 | 1.0 | 3.0 | 0.02 | 0.24 | 0.00 | 99 | 1015.4 |
| 20260507222703 | 53 | 354 | 1.0 | 3.0 | 0.04 | 0.24 | 0.00 | 99 | 1015.3 |
| 20260507221803 | 53 | 317 | 1.0 | 4.0 | 0.04 | 0.23 | 0.00 | 99 | 1015.4 |
| 20260507220903 | 53 | 306 | 2.0 | 6.0 | 0.04 | 0.23 | 0.00 | 99 | 1015.2 |
| 20260507220003 | 53 | 105 | 2.0 | 6.0 | 0.05 | 0.23 | 0.00 | 99 | 1014.8 |
| 20260507215403 | 53 | 103 | 2.0 | 6.0 | 0.05 | 0.23 | 0.23 | 99 | 1014.7 |
| 20260507214503 | 53 | 120 | 1.0 | 4.0 | 0.04 | 0.22 | 0.22 | 99 | 1014.7 |
| 20260507213813 | 53 | 118 | 2.0 | 4.0 | 0.04 | 0.21 | 0.21 | 99 | 1014.6 |
| 20260507212703 | 53 | 110 | 2.0 | 7.0 | 0.03 | 0.19 | 0.19 | 98 | 1014.6 |
| 20260507211803 | 53 | 152 | 1.0 | 4.0 | 0.04 | 0.19 | 0.19 | 98 | 1014.7 |
| 20260507210903 | 53 | 133 | 1.0 | 4.0 | 0.06 | 0.19 | 0.19 | 98 | 1014.6 |
| 20260507210003 | 53 | 162 | 1.0 | 3.0 | 0.06 | 0.19 | 0.19 | 98 | 1014.8 |
| 20260507205403 | 53 | 163 | 1.0 | 3.0 | 0.06 | 0.18 | 0.18 | 98 | 1014.8 |
| 20260507204503 | 53 | 119 | 2.0 | 4.0 | 0.07 | 0.18 | 0.18 | 98 | 1014.6 |
| 20260507203603 | 53 | 109 | 1.0 | 4.0 | 0.07 | 0.17 | 0.17 | 98 | 1014.7 |
| 20260507202703 | 53 | 126 | 1.0 | 3.0 | 0.06 | 0.16 | 0.16 | 97 | 1014.7 |
| 20260507201803 | 53 | 114 | 1.0 | 3.0 | 0.07 | 0.15 | 0.15 | 97 | 1014.8 |
| 20260507200903 | 53 | 102 | 1.0 | 3.0 | 0.08 | 0.13 | 0.13 | 97 | 1014.8 |
| 20260507200003 | 54 | 22 | 1.0 | 2.0 | 0.09 | 0.13 | 0.13 | 96 | 1015.0 |
| 20260507195614 | 54 | 9 | 1.0 | 2.0 | 0.10 | 0.12 | 0.12 | 96 | 1015.0 |
| 20260507194503 | 54 | 105 | 1.0 | 3.0 | 0.10 | 0.11 | 0.11 | 96 | 1014.7 |
| 20260507193603 | 54 | 117 | 1.0 | 3.0 | 0.09 | 0.11 | 0.11 | 95 | 1014.9 |
| 20260507192703 | 54 | 103 | 1.0 | 2.0 | 0.09 | 0.10 | 0.10 | 95 | 1014.8 |
| 20260507191803 | 54 | 193 | 1.0 | 4.0 | 0.07 | 0.08 | 0.08 | 95 | 1015.0 |
| 20260507190903 | 54 | 226 | 1.0 | 4.0 | 0.04 | 0.05 | 0.05 | 93 | 1014.9 |
| 20260507190004 | 55 | 299 | 0.0 | 3.0 | 0.02 | 0.03 | 0.03 | 91 | 1014.5 |
| 20260507185403 | 55 | 353 | 1.0 | 4.0 | 0.00 | 0.02 | 0.02 | 90 | 1014.5 |
| 20260507184503 | 55 | 46 | 1.0 | 3.0 | 0.00 | 0.02 | 0.02 | 89 | 1014.2 |
| 20260507183603 | 55 | 18 | 2.0 | 4.0 | 0.00 | 0.02 | 0.02 | 88 | 1013.8 |
| 20260507182703 | 55 | 16 | 2.0 | 4.0 | 0.00 | 0.02 | 0.02 | 88 | 1013.6 |
| 20260507181803 | 55 | 11 | 2.0 | 6.0 | 0.00 | 0.02 | 0.02 | 87 | 1013.7 |
| 20260507180903 | 55 | 357 | 4.0 | 8.0 | 0.00 | 0.02 | 0.02 | 87 | 1013.4 |
| 20260507180003 | 55 | 360 | 5.0 | 12.0 | 0.00 | 0.02 | 0.02 | 86 | 1013.1 |
| 20260507175403 | 55 | 357 | 5.0 | 14.0 | 0.00 | 0.02 | 0.02 | 86 | 1013.2 |
| 20260507174503 | 55 | 350 | 6.0 | 12.0 | 0.00 | 0.02 | 0.02 | 85 | 1012.9 |
| 20260507173603 | 56 | 344 | 5.0 | 12.0 | 0.00 | 0.02 | 0.02 | 83 | 1013.2 |
| 20260507172703 | 56 | 352 | 5.0 | 11.0 | 0.00 | 0.02 | 0.02 | 83 | 1013.0 |
| 20260507171803 | 57 | 340 | 7.0 | 15.0 | 0.00 | 0.01 | 0.01 | 83 | 1012.9 |
| 20260507170903 | 59 | 328 | 7.0 | 17.0 | 0.00 | 0.01 | 0.01 | 80 | 1013.0 |
| 20260507170003 | 63 | 252 | 2.0 | 9.0 | 0.01 | 0.01 | 0.01 | 78 | 1012.6 |
| 20260507165403 | 63 | 216 | 1.0 | 4.0 | 0.01 | 0.01 | 0.01 | 78 | 1012.3 |
| 20260507164503 | 62 | 204 | 1.0 | 3.0 | 0.01 | 0.01 | 0.01 | 79 | 1011.9 |
| 20260507163603 | 62 | 178 | 1.0 | 5.0 | 0.01 | 0.01 | 0.01 | 78 | 1011.8 |
| 20260507162703 | 63 | 172 | 2.0 | 6.0 | 0.01 | 0.01 | 0.01 | 80 | 1011.6 |
| 20260507161803 | 64 | 169 | 0.0 | 3.0 | 0.01 | 0.01 | 0.01 | 80 | 1011.6 |
| 20260507160903 | 64 | 100 | 2.0 | 4.0 | 0.01 | 0.01 | 0.01 | 78 | 1011.6 |
| 20260507160003 | 65 | 101 | 2.0 | 5.0 | 0.00 | 0.00 | 0.00 | 74 | 1011.4 |
| 20260507155403 | 65 | 101 | 2.0 | 5.0 | 0.00 | 0.00 | 0.00 | 72 | 1011.6 |
| 20260507154503 | 66 | 102 | 3.0 | 6.0 | 0.00 | 0.00 | 0.00 | 69 | 1011.8 |
| 20260507153603 | 66 | 107 | 1.0 | 4.0 | 0.00 | 0.00 | 0.00 | 68 | 1011.6 |
| 20260507152703 | 66 | 95 | 1.0 | 3.0 | 0.00 | 0.00 | 0.00 | 66 | 1011.6 |
| 20260507151803 | 66 | 85 | 1.0 | 2.0 | 0.00 | 0.00 | 0.00 | 65 | 1012.0 |
| 20260507151113 | 67 | 35 | 1.0 | 2.0 | 0.00 | 0.00 | 0.00 | 65 | 1011.8 |
| 20260507150003 | 67 | 321 | 1.0 | 2.0 | 0.00 | 0.00 | 0.00 | 66 | 1011.8 |
| 20260507145403 | 67 | 360 | 1.0 | 3.0 | 0.00 | 0.00 | 0.00 | 67 | 1011.6 |
| 20260507144503 | 66 | 338 | 1.0 | 4.0 | 0.00 | 0.00 | 0.00 | 67 | 1011.5 |
| 20260507143603 | 66 | 352 | 2.0 | 4.0 | 0.00 | 0.00 | 0.00 | 67 | 1011.6 |
| 20260507142703 | 66 | 349 | 3.0 | 6.0 | 0.00 | 0.00 | 0.00 | 68 | 1011.3 |
| 20260507141803 | 67 | 357 | 3.0 | 6.0 | 0.00 | 0.00 | 0.00 | 67 | 1011.4 |
| 20260507140903 | 67 | 351 | 4.0 | 10.0 | 0.00 | 0.00 | 0.00 | 66 | 1011.3 |
| 20260507140003 | 67 | 338 | 3.0 | 8.0 | 0.00 | 0.00 | 0.00 | 65 | 1011.5 |
| 20260507135403 | 68 | 299 | 2.0 | 4.0 | 0.00 | 0.00 | 0.00 | 62 | 1011.5 |
| 20260507134713 | 68 | 291 | 2.0 | 6.0 | 0.00 | 0.00 | 0.00 | 63 | 1011.4 |
| 20260507133603 | 68 | 321 | 2.0 | 5.0 | 0.00 | 0.00 | 0.00 | 63 | 1011.3 |
| 20260507132703 | 67 | 333 | 3.0 | 6.0 | 0.00 | 0.00 | 0.00 | 63 | 1011.6 |
| 20260507131803 | 67 | 310 | 3.0 | 9.0 | 0.00 | 0.00 | 0.00 | 64 | 1011.5 |
| 20260507130903 | 68 | 321 | 3.0 | 6.0 | 0.00 | 0.00 | 0.00 | 64 | 1011.6 |
| 20260507130003 | 67 | 320 | 2.0 | 9.0 | 0.00 | 0.00 | 0.00 | 64 | 1011.9 |
| 20260507125403 | 67 | 304 | 2.0 | 6.0 | 0.00 | 0.00 | 0.00 | 63 | 1011.6 |
| 20260507124503 | 67 | 312 | 2.0 | 5.0 | 0.00 | 0.00 | 0.00 | 65 | 1011.8 |
| 20260507123603 | 67 | 311 | 2.0 | 6.0 | 0.00 | 0.00 | 0.00 | 66 | 1011.6 |
| 20260507122914 | 67 | 321 | 2.0 | 6.0 | 0.00 | 0.00 | 0.00 | 67 | 1011.5 |
| 20260507121803 | 67 | 225 | 3.0 | 8.0 | 0.00 | 0.00 | 0.00 | 65 | 1011.9 |
| 20260507120903 | 67 | 266 | 2.0 | 6.0 | 0.00 | 0.00 | 0.00 | 63 | 1011.8 |
| 20260507120214 | 67 | 253 | 2.0 | 6.0 | 0.00 | 0.00 | 0.00 | 64 | 1011.8 |
| 20260507115403 | 67 | 216 | 3.0 | 8.0 | 0.00 | 0.00 | 0.00 | 66 | 1011.6 |
| 20260507114712 | 67 | 212 | 3.0 | 9.0 | 0.00 | 0.00 | 0.00 | 65 | 1011.8 |
| 20260507113814 | 67 | 242 | 3.0 | 7.0 | 0.00 | 0.00 | 0.00 | 62 | 1011.9 |
| 20260507112703 | 67 | 266 | 3.0 | 6.0 | 0.00 | 0.00 | 0.00 | 65 | 1011.6 |
| 20260507111803 | 66 | 237 | 3.0 | 7.0 | 0.00 | 0.00 | 0.00 | 65 | 1011.9 |
| 20260507110903 | 66 | 225 | 3.0 | 10.0 | 0.00 | 0.00 | 0.00 | 66 | 1011.6 |
| 20260507110213 | 66 | 209 | 4.0 | 10.0 | 0.00 | 0.00 | 0.00 | 65 | 1011.5 |
| 20260507105403 | 66 | 213 | 4.0 | 10.0 | 0.00 | 0.00 | 0.00 | 64 | 1011.4 |
| 20260507104503 | 66 | 223 | 3.0 | 11.0 | 0.00 | 0.00 | 0.00 | 65 | 1011.3 |
| 20260507103603 | 66 | 200 | 4.0 | 9.0 | 0.00 | 0.00 | 0.00 | 65 | 1011.4 |
| 20260507102703 | 66 | 196 | 4.0 | 10.0 | 0.00 | 0.00 | 0.00 | 64 | 1011.4 |
| 20260507101803 | 66 | 214 | 4.0 | 10.0 | 0.00 | 0.00 | 0.00 | 64 | 1011.3 |
| 20260507100903 | 66 | 213 | 4.0 | 10.0 | 0.00 | 0.00 | 0.00 | 64 | 1011.2 |
| 20260507100003 | 67 | 212 | 4.0 | 10.0 | 0.00 | 0.00 | 0.00 | 63 | 1011.0 |
| 20260507095403 | 66 | 210 | 5.0 | 12.0 | 0.00 | 0.00 | 0.00 | 63 | 1011.3 |
| 20260507094503 | 67 | 207 | 4.0 | 10.0 | 0.00 | 0.00 | 0.00 | 62 | 1011.0 |
| 20260507093603 | 67 | 206 | 5.0 | 14.0 | 0.00 | 0.00 | 0.00 | 62 | 1010.8 |
| 20260507092703 | 67 | 212 | 4.0 | 11.0 | 0.00 | 0.00 | 0.00 | 59 | 1011.0 |
| 20260507091803 | 67 | 209 | 5.0 | 15.0 | 0.00 | 0.00 | 0.00 | 62 | 1010.6 |
| 20260507091113 | 67 | 207 | 4.0 | 12.0 | 0.00 | 0.00 | 0.00 | 61 | 1010.6 |
| 20260507090212 | 67 | 209 | 5.0 | 12.0 | 0.00 | 0.00 | 0.00 | 61 | 1010.3 |
| 20260507085614 | 66 | 218 | 5.0 | 12.0 | 0.00 | 0.00 | 0.00 | 61 | 1010.2 |
| 20260507084503 | 67 | 215 | 5.0 | 11.0 | 0.00 | 0.00 | 0.00 | 59 | 1010.1 |
| 20260507083812 | 67 | 210 | 6.0 | 13.0 | 0.00 | 0.00 | 0.00 | 59 | 1010.1 |
| 20260507082703 | 68 | 206 | 5.0 | 13.0 | 0.00 | 0.00 | 0.00 | 59 | 1010.1 |
| 20260507081803 | 68 | 205 | 4.0 | 13.0 | 0.00 | 0.00 | 0.00 | 59 | 1009.9 |
| 20260507080903 | 67 | 192 | 4.0 | 12.0 | 0.00 | 0.00 | 0.00 | 60 | 1009.7 |
| 20260507080003 | 68 | 200 | 4.0 | 9.0 | 0.00 | 0.00 | 0.00 | 60 | 1009.8 |
| 20260507075403 | 68 | 201 | 4.0 | 12.0 | 0.00 | 0.00 | 0.00 | 59 | 1009.6 |
| 20260507074503 | 67 | 200 | 5.0 | 12.0 | 0.00 | 0.00 | 0.00 | 59 | 1009.6 |
| 20260507073603 | 67 | 201 | 4.0 | 11.0 | 0.00 | 0.00 | 0.00 | 60 | 1009.3 |
| 20260507072703 | 67 | 205 | 3.0 | 9.0 | 0.00 | 0.00 | 0.00 | 60 | 1009.5 |
| 20260507072013 | 67 | 217 | 4.0 | 9.0 | 0.00 | 0.00 | 0.00 | 60 | 1009.4 |
| 20260507070903 | 67 | 211 | 4.0 | 10.0 | 0.00 | 0.00 | 0.00 | 60 | 1009.2 |
| 20260507070005 | 67 | 206 | 4.0 | 10.0 | 0.00 | 0.00 | 0.00 | 59 | 1009.3 |
| 20260507065403 | 66 | 206 | 4.0 | 10.0 | 0.00 | 0.00 | 0.00 | 62 | 1009.1 |
| 20260507064503 | 66 | 204 | 4.0 | 10.0 | 0.00 | 0.00 | 0.00 | 60 | 1009.3 |
| 20260507063603 | 66 | 214 | 4.0 | 10.0 | 0.00 | 0.00 | 0.00 | 62 | 1008.9 |
| 20260507062703 | 66 | 225 | 4.0 | 11.0 | 0.00 | 0.00 | 0.00 | 61 | 1009.1 |
| 20260507061803 | 65 | 218 | 3.0 | 8.0 | 0.00 | 0.00 | 0.00 | 61 | 1009.1 |
| 20260507060903 | 65 | 205 | 4.0 | 9.0 | 0.00 | 0.00 | 0.00 | 63 | 1008.9 |
| 20260507060003 | 65 | 206 | 3.0 | 9.0 | 0.00 | 0.00 | 0.00 | 63 | 1008.7 |
| 20260507055403 | 65 | 213 | 3.0 | 8.0 | 0.00 | 0.00 | 0.00 | 63 | 1008.6 |
| 20260507054503 | 65 | 212 | 3.0 | 6.0 | 0.00 | 0.00 | 0.00 | 63 | 1008.7 |
| 20260507053603 | 64 | 210 | 3.0 | 9.0 | 0.00 | 0.00 | 0.00 | 65 | 1008.6 |
| 20260507052703 | 63 | 208 | 3.0 | 9.0 | 0.00 | 0.00 | 0.00 | 66 | 1008.6 |
| 20260507052012 | 62 | 201 | 2.0 | 5.0 | 0.00 | 0.00 | 0.00 | 69 | 1008.6 |
| 20260507050903 | 62 | 204 | 1.0 | 3.0 | 0.00 | 0.00 | 0.00 | 70 | 1008.6 |
| 20260507050213 | 61 | 198 | 1.0 | 4.0 | 0.00 | 0.00 | 0.00 | 72 | 1008.6 |
| 20260507045612 | 60 | 204 | 1.0 | 4.0 | 0.00 | 0.00 | 0.00 | 72 | 1008.7 |
| 20260507044714 | 59 | 177 | 1.0 | 2.0 | 0.00 | 0.00 | 0.00 | 74 | 1008.5 |
| 20260507043603 | 59 | 166 | 1.0 | 3.0 | 0.00 | 0.00 | 0.00 | 75 | 1008.5 |
| 20260507042703 | 59 | 168 | 1.0 | 4.0 | 0.00 | 0.00 | 0.00 | 74 | 1008.4 |
| 20260507041803 | 59 | 162 | 1.0 | 3.0 | 0.00 | 0.00 | 0.00 | 75 | 1008.4 |
| 20260507040903 | 59 | 167 | 1.0 | 3.0 | 0.00 | 0.00 | 0.00 | 75 | 1008.3 |
| 20260507040003 | 59 | 170 | 1.0 | 4.0 | 0.00 | 0.00 | 0.00 | 76 | 1008.2 |
| 20260507035614 | 59 | 174 | 2.0 | 4.0 | 0.00 | 0.00 | 0.00 | 75 | 1008.2 |
| 20260507034503 | 59 | 185 | 2.0 | 6.0 | 0.00 | 0.00 | 0.00 | 75 | 1008.3 |
| 20260507033603 | 59 | 193 | 2.0 | 6.0 | 0.00 | 0.00 | 0.00 | 74 | 1008.2 |
| 20260507032703 | 60 | 196 | 3.0 | 9.0 | 0.00 | 0.00 | 0.00 | 73 | 1008.2 |
| 20260507032013 | 59 | 194 | 3.0 | 9.0 | 0.00 | 0.00 | 0.00 | 73 | 1008.1 |
| 20260507031113 | 56 | 195 | 2.0 | 5.0 | 0.00 | 0.00 | 0.00 | 82 | 1007.9 |
| 20260507030003 | 53 | 249 | 0.0 | 2.0 | 0.00 | 0.00 | 0.00 | 92 | 1008.1 |
| 20260507025403 | 53 | 144 | 0.0 | 1.0 | 0.00 | 0.00 | 0.00 | 92 | 1008.0 |
| 20260507024503 | 54 | 111 | 0.0 | 2.0 | 0.00 | 0.00 | 0.00 | 91 | 1007.7 |
| 20260507023603 | 54 | 72 | 1.0 | 2.0 | 0.00 | 0.00 | 0.00 | 91 | 1007.7 |